RCH22 KMEM-KLRF

Flight info

Callsign RCH22
Flight time N/A
Altitude 24000
Route ELVIS4 WTWOO DUMPI
Aircraft C17/H-SDE1E2FGHIJ5RTUWXY/LB1D1

Departure

Time 2026-05-05 01:14
Airport Memphis International Airport (KMEM)

Arrival

Time N/A
Airport Little Rock Air Force Base (KLRF)
Time Latitude Longitude Altitude Speed Heading
2026-05-05 00:12 35.02463 -89.96725 301 ft 0 kts 88°
2026-05-05 00:40 35.02470 -89.96658 300 ft 7 kts 61°
2026-05-05 00:40 35.02492 -89.96653 302 ft 3 kts
2026-05-05 00:40 35.02531 -89.96669 302 ft 6 kts 302°
2026-05-05 00:40 35.02537 -89.96698 301 ft 0 kts 271°
2026-05-05 01:03 35.02537 -89.96702 298 ft 6 kts 271°
2026-05-05 01:03 35.02546 -89.96831 295 ft 5 kts 306°
2026-05-05 01:03 35.02659 -89.96847 299 ft 26 kts 357°
2026-05-05 01:03 35.02768 -89.96850 297 ft 7 kts 358°
2026-05-05 01:04 35.02870 -89.96918 298 ft 23 kts 308°
2026-05-05 01:04 35.02938 -89.97024 299 ft 3 kts 264°
2026-05-05 01:05 35.02858 -89.97048 299 ft 23 kts 173°
2026-05-05 01:05 35.02707 -89.97022 295 ft 20 kts 176°
2026-05-05 01:05 35.02567 -89.97077 294 ft 19 kts 231°
2026-05-05 01:05 35.02556 -89.97260 294 ft 34 kts 270°
2026-05-05 01:06 35.02597 -89.97415 296 ft 9 kts 351°
2026-05-05 01:06 35.02730 -89.97424 302 ft 27 kts 358°
2026-05-05 01:06 35.02902 -89.97429 300 ft 24 kts
2026-05-05 01:06 35.03061 -89.97432 303 ft 22 kts 358°
2026-05-05 01:07 35.03211 -89.97437 300 ft 22 kts
2026-05-05 01:07 35.03362 -89.97440 300 ft 22 kts 359°
2026-05-05 01:07 35.03507 -89.97442 303 ft 20 kts 359°
2026-05-05 01:07 35.03649 -89.97445 303 ft 21 kts 359°
2026-05-05 01:08 35.03797 -89.97448 306 ft 22 kts 358°
2026-05-05 01:08 35.03951 -89.97453 309 ft 22 kts
2026-05-05 01:08 35.04105 -89.97456 310 ft 22 kts 359°
2026-05-05 01:08 35.04252 -89.97458 311 ft 20 kts 360°
2026-05-05 01:09 35.04386 -89.97461 314 ft 19 kts 358°
2026-05-05 01:09 35.04525 -89.97463 312 ft 20 kts
2026-05-05 01:09 35.04648 -89.97467 314 ft 16 kts 359°
2026-05-05 01:09 35.04768 -89.97470 314 ft 19 kts 359°
2026-05-05 01:10 35.04901 -89.97472 313 ft 20 kts 359°
2026-05-05 01:10 35.05038 -89.97474 315 ft 19 kts 359°
2026-05-05 01:10 35.05168 -89.97475 317 ft 18 kts 359°
2026-05-05 01:10 35.05298 -89.97479 318 ft 19 kts 359°
2026-05-05 01:11 35.05403 -89.97487 319 ft 9 kts 338°
2026-05-05 01:11 35.05410 -89.97491 319 ft 0 kts 336°
2026-05-05 01:12 35.05418 -89.97495 318 ft 9 kts 336°
2026-05-05 01:12 35.05456 -89.97570 320 ft 13 kts 236°
2026-05-05 01:12 35.05402 -89.97614 322 ft 4 kts 187°
2026-05-05 01:12 35.05391 -89.97614 321 ft 1 kts 179°
2026-05-05 01:13 35.05386 -89.97614 322 ft 0 kts 179°
2026-05-05 01:13 35.05375 -89.97614 321 ft 9 kts 179°
2026-05-05 01:13 35.04945 -89.97608 312 ft 117 kts 179°
2026-05-05 01:13 35.03898 -89.97580 802 ft 158 kts 180°
2026-05-05 01:14 35.02748 -89.97498 2074 ft 185 kts 180°
2026-05-05 01:14 35.01309 -89.97383 3269 ft 231 kts 179°
2026-05-05 01:14 34.99322 -89.97252 2898 ft 340 kts 179°
2026-05-05 01:14 34.96594 -89.97087 2544 ft 437 kts 179°
2026-05-05 01:15 34.93750 -89.96946 2895 ft 376 kts 179°
2026-05-05 01:15 34.91282 -89.96816 2695 ft 333 kts 179°
2026-05-05 01:15 34.89112 -89.96695 2744 ft 292 kts 179°
2026-05-05 01:15 34.87192 -89.96578 2751 ft 259 kts 179°
2026-05-05 01:16 34.85506 -89.96462 2736 ft 233 kts 180°
2026-05-05 01:16 34.83961 -89.96349 2700 ft 212 kts 180°
2026-05-05 01:16 34.82557 -89.96239 2706 ft 187 kts 179°
2026-05-05 01:16 34.81400 -89.96135 2953 ft 150 kts 179°
2026-05-05 01:17 34.80199 -89.96031 3341 ft 206 kts 180°
2026-05-05 01:17 34.78517 -89.95966 4060 ft 274 kts 182°
2026-05-05 01:17 34.76413 -89.96005 5157 ft 327 kts 186°
2026-05-05 01:17 34.74218 -89.96743 6194 ft 311 kts 212°
2026-05-05 01:18 34.72899 -89.98393 7086 ft 241 kts 247°
2026-05-05 01:18 34.72599 -90.00286 8031 ft 237 kts 265°
2026-05-05 01:18 34.72525 -90.02412 9070 ft 264 kts 267°
2026-05-05 01:18 34.72480 -90.04652 10082 ft 267 kts 269°
2026-05-05 01:19 34.72675 -90.06959 10540 ft 287 kts 279°
2026-05-05 01:19 34.73096 -90.09323 10504 ft 280 kts 282°
2026-05-05 01:19 34.73610 -90.11837 10528 ft 335 kts 283°
2026-05-05 01:19 34.74187 -90.14571 10516 ft 331 kts 283°
2026-05-05 01:20 34.74771 -90.17289 10507 ft 334 kts 283°
2026-05-05 01:20 34.75364 -90.20054 10505 ft 334 kts 283°
2026-05-05 01:20 34.75951 -90.22776 10505 ft 334 kts 283°
2026-05-05 01:20 34.76537 -90.25497 10506 ft 336 kts 283°
2026-05-05 01:21 34.77133 -90.28255 10505 ft 334 kts 283°
2026-05-05 01:21 34.77716 -90.30954 10506 ft 334 kts 283°
2026-05-05 01:21 34.78304 -90.33667 10502 ft 320 kts 283°
2026-05-05 01:21 34.78851 -90.36164 10485 ft 289 kts 283°
2026-05-05 01:22 34.79345 -90.38396 10488 ft 263 kts 284°
2026-05-05 01:22 34.79826 -90.40449 10472 ft 239 kts 291°
2026-05-05 01:22 34.80859 -90.41867 10479 ft 227 kts 330°
2026-05-05 01:22 34.82437 -90.42217 10517 ft 238 kts 354°
2026-05-05 01:23 34.84125 -90.42167 10508 ft 242 kts 358°
2026-05-05 01:23 34.85772 -90.42067 10505 ft 237 kts 358°
2026-05-05 01:23 34.86873 -90.41987 10501 ft 238 kts 358°
2026-05-05 01:23 34.88552 -90.41857 10392 ft 246 kts 358°
2026-05-05 01:24 34.90830 -90.41683 9929 ft 244 kts 358°
2026-05-05 01:24 34.91952 -90.41595 9673 ft 241 kts 358°
2026-05-05 01:24 34.93625 -90.41460 9257 ft 237 kts 359°
2026-05-05 01:24 34.95250 -90.41331 8862 ft 234 kts 359°
2026-05-05 01:25 34.96875 -90.41204 8475 ft 233 kts 359°
2026-05-05 01:25 34.98484 -90.41082 8103 ft 233 kts 358°
2026-05-05 01:25 35.00111 -90.40966 7732 ft 233 kts 359°
2026-05-05 01:25 35.01722 -90.40865 7373 ft 233 kts 358°
2026-05-05 01:26 35.03343 -90.40763 7014 ft 233 kts 358°
2026-05-05 01:26 35.04967 -90.40660 6643 ft 232 kts 358°
2026-05-05 01:26 35.06583 -90.40534 6285 ft 233 kts
2026-05-05 01:26 35.08004 -90.39627 5872 ft 239 kts 49°
2026-05-05 01:27 35.08670 -90.37781 5538 ft 238 kts 84°
2026-05-05 01:27 35.08885 -90.35792 5221 ft 239 kts 88°
2026-05-05 01:27 35.09075 -90.33782 4870 ft 235 kts 88°
2026-05-05 01:27 35.09255 -90.31810 4489 ft 232 kts 89°
2026-05-05 01:28 35.09438 -90.29875 4118 ft 231 kts 89°
2026-05-05 01:28 35.09630 -90.27923 3747 ft 230 kts 89°
2026-05-05 01:28 35.09825 -90.25997 3371 ft 227 kts 88°
2026-05-05 01:28 35.10017 -90.24128 3065 ft 220 kts 89°
2026-05-05 01:29 35.10453 -90.22333 2987 ft 227 kts 64°
2026-05-05 01:29 35.11331 -90.20682 2996 ft 233 kts 59°
2026-05-05 01:29 35.12256 -90.19048 2992 ft 232 kts 58°
2026-05-05 01:29 35.13162 -90.17421 2990 ft 236 kts 59°
2026-05-05 01:30 35.14100 -90.15757 2988 ft 236 kts 58°
2026-05-05 01:30 35.15032 -90.14123 2983 ft 234 kts 58°
2026-05-05 01:30 35.15964 -90.12466 2989 ft 240 kts 58°
2026-05-05 01:30 35.16902 -90.10809 2989 ft 235 kts 55°
2026-05-05 01:31 35.18213 -90.09641 2970 ft 235 kts 12°
2026-05-05 01:31 35.19829 -90.09401 3006 ft 239 kts 359°
2026-05-05 01:31 35.21473 -90.09313 2990 ft 233 kts 358°
2026-05-05 01:31 35.23038 -90.08834 2962 ft 238 kts 35°
2026-05-05 01:32 35.24004 -90.07278 2993 ft 230 kts 79°
2026-05-05 01:32 35.23903 -90.05449 2997 ft 211 kts 125°
2026-05-05 01:32 35.22868 -90.04314 3014 ft 198 kts 166°
2026-05-05 01:32 35.21539 -90.03987 3008 ft 195 kts 177°
2026-05-05 01:33 35.20221 -90.03834 2984 ft 187 kts 187°
2026-05-05 01:33 35.19111 -90.04517 2985 ft 185 kts 234°
2026-05-05 01:33 35.18862 -90.06084 3016 ft 206 kts 278°
2026-05-05 01:33 35.19699 -90.07543 3010 ft 221 kts 323°
2026-05-05 01:34 35.21219 -90.07939 3009 ft 234 kts
2026-05-05 01:34 35.22660 -90.06987 3014 ft 241 kts 53°
2026-05-05 01:34 35.23642 -90.05403 2969 ft 237 kts 41°
2026-05-05 01:34 35.25027 -90.04334 3005 ft 241 kts 43°
2026-05-05 01:35 35.25864 -90.02610 3011 ft 231 kts 82°
2026-05-05 01:35 35.26139 -90.00698 2996 ft 228 kts 88°
2026-05-05 01:35 35.26327 -89.98794 2968 ft 226 kts 99°
2026-05-05 01:35 35.25781 -89.97135 2982 ft 203 kts 145°
2026-05-05 01:36 35.24561 -89.96472 2998 ft 193 kts 175°
2026-05-05 01:36 35.23206 -89.96323 3007 ft 208 kts 185°
2026-05-05 01:36 35.21708 -89.96675 3047 ft 217 kts 197°
2026-05-05 01:36 35.20319 -89.97099 3065 ft 200 kts 194°
2026-05-05 01:37 35.18964 -89.97360 3003 ft 192 kts 191°
2026-05-05 01:37 35.17614 -89.97460 2791 ft 196 kts 184°
2026-05-05 01:37 35.16277 -89.97398 2566 ft 191 kts 181°
2026-05-05 01:37 35.14953 -89.97331 2345 ft 187 kts 181°
2026-05-05 01:38 35.13658 -89.97280 2112 ft 185 kts 182°
2026-05-05 01:38 35.12398 -89.97238 1910 ft 181 kts 182°
2026-05-05 01:38 35.11132 -89.97282 1661 ft 182 kts 185°
2026-05-05 01:38 35.09854 -89.97326 1340 ft 191 kts 184°
2026-05-05 01:39 35.08516 -89.97353 1135 ft 191 kts 182°
2026-05-05 01:39 35.07199 -89.97323 878 ft 186 kts 178°
2026-05-05 01:39 35.05937 -89.97288 601 ft 182 kts 180°
2026-05-05 01:39 35.04672 -89.97292 350 ft 164 kts 179°
2026-05-05 01:40 35.03818 -89.97274 309 ft 82 kts 179°
2026-05-05 01:40 35.03398 -89.97264 307 ft 56 kts 179°
2026-05-05 01:40 35.03036 -89.97260 299 ft 49 kts 180°
2026-05-05 01:40 35.02721 -89.97253 293 ft 43 kts 178°
2026-05-05 01:41 35.02560 -89.97137 292 ft 23 kts 81°
2026-05-05 01:41 35.02634 -89.97025 295 ft 15 kts
2026-05-05 01:41 35.02750 -89.97024 296 ft 17 kts
2026-05-05 01:41 35.02837 -89.97050 297 ft 13 kts 345°
2026-05-05 01:42 35.02927 -89.97064 299 ft 6 kts 30°
2026-05-05 01:42 35.02921 -89.96986 298 ft 23 kts 129°
2026-05-05 01:42 35.02774 -89.96863 296 ft 20 kts 174°
2026-05-05 01:42 35.02692 -89.96831 296 ft 10 kts 120°
2026-05-05 01:43 35.02687 -89.96765 298 ft 0 kts 89°